Regional Weather Roundup
Issued by NWS Jackson, KY

Home | Current Version | Previous Version | Text Only | Print | Product List | Glossary Off
Versions: 1 2 3 4 5 6 7 8 9 10 11 12 13 14 15 16 17 18 19 20 21 22 23 24 25 26 27

000
ASUS43 KJKL 250310
RWRJKL

EAST KENTUCKY HOURLY WEATHER ROUNDUP
NATIONAL WEATHER SERVICE JACKSON KY
1100 PM EDT WED MAY 24 2017

NOTE: "FAIR" INDICATES FEW OR NO CLOUDS BELOW 12,000 FEET WITH
NO SIGNIFICANT WEATHER AND/OR OBSTRUCTIONS TO VISIBILITY.

* THESE REPORTS ARE NOT UNDER NWS QUALITY CONTROL AND MAY NOT
  REPORT WEATHER SUCH AS PRECIPITATION AND FOG.

KYZ079-080-083-085-087-088-110-112-115-119-120-250400
...EASTERN KENTUCKY...

CITY           SKY/WX    TMP DP  RH WIND       PRES   REMARKS
JACKSON        MOCLDY    58  53  84 VRB3      29.48R
LONDON         CLOUDY    57  50  77 SW10      29.51R
SOMERSET*      CLOUDY    54  50  87 W9        29.54R
MONTICELLO*    CLOUDY    56  51  84 W16       29.56R
WILLIAMSBURG*  PTCLDY    55  54  94 W8        29.53S
MIDDLESBORO*   MOCLDY    58  49  74 CALM      29.54R
HARLAN APT*    CLOUDY    57  48  72 W7        29.53R
PIKE CO APT*   MOCLDY    60  53  78 SW9G16    29.49S
BIG SANDY APT* PTCLDY    62  53  74 SW9       29.48R
ASHLAND*       PTCLDY    63  59  88 SW6       29.42R
$$

KYZ035-036-041-042-044-050-067-078-099-250400
...CENTRAL KENTUCKY...

CITY           SKY/WX    TMP DP  RH WIND       PRES   REMARKS
MT STERLING*   CLOUDY   N/A N/A N/A W10G20    29.46R
FLEMING/MASON* DRIZZLE   59  58  97 SW7       29.43R
DANVILLE*      CLOUDY    55  54  94 W9        29.50R
LEXINGTON      LGT RAIN  58  55  90 SW12      29.45R
FRANKFORT      CLOUDY    59  54  83 SW12      29.43R
LOUISVILLE     CLOUDY    58  56  93 W8        29.45R
LEBANON*       CLOUDY    57  54  88 SW7       29.49R
GLASGOW*       CLOUDY    55  55 100 SW7       29.53R
BOWLING GREEN  CLOUDY    56  55  97 SW8       29.54R
$$

KYZ091>093-OHZ055-061-077-WVZ005-015-034-035-042-250400
...SOUTHERN OHIO/WEST VIRGINIA...

CITY           SKY/WX    TMP DP  RH WIND       PRES   REMARKS
COVINGTON      LGT RAIN  59  58  96 W6        29.38R
COLUMBUS       CLOUDY    65  60  84 E10       29.39S
DAYTON         RAIN      59  58  96 SE8       29.38R
WILMINGTON     CLOUDY    64  61  90 S10       29.37R
HUNTINGTON     PTCLDY    62  56  80 S7        29.44R
CHARLESTON     CLOUDY    64  57  78 S5        29.45R
PINEVILLE*     HVY RAIN  60  59  96 MISG      29.56R
BECKLEY        LGT RAIN  57  55  93 SE9       29.54S
BLUEFIELD      RAIN      55  52  89 CALM      29.55R
LOGAN CO APT*  CLOUDY    61  59  94 CALM      29.49R
$$

VAZ002-007-008-TNZ017-027-036-066-071-250400
...SOUTHWEST VIRGINIA/EAST TENNESSEE...

CITY           SKY/WX    TMP DP  RH WIND       PRES   REMARKS
WISE*            N/A    N/A N/A N/A CALM      29.56R
JONESVILLE*    CLOUDY    57  54  88 CALM      29.55R
ABINGDON*      CLOUDY    59  58  96 CALM      29.55R
BRISTOL        CLOUDY    59  58  96 CALM      29.53R
MORRISTOWN*    CLOUDY    59  54  82 W10       29.54R
SEVIERVILLE*   CLOUDY    61  52  72 W7        29.55R
KNOXVILLE      PTCLDY    59  50  72 W10       29.56R
LAFOLLETTE*    MOCLDY    57  48  72 SW6       29.58R
OAK RIDGE      CLEAR     58  49  72 W3        29.57R
CROSSVILLE     CLEAR     50  48  93 W7        29.59R
NASHVILLE      CLOUDY    58  52  80 NW6       29.58R
$$

...KEY TO REMARKS...
VSB - VISIBILITY IN MILES
WCI - WIND CHILL INDEX
HX  - HEAT INDEX

$$




USA.gov is the U.S. government's official web portal to all federal, state and local government web resources and services.